Time,TemperatureF,DewpointF,PressureIn,WindDirection,WindDirectionDegrees,WindSpeedMPH,WindSpeedGustMPH,Humidity,HourlyPrecipIn,Conditions,Clouds,dailyrainin,SoftwareType,DateUTC
2013-03-12 00:01:00,50.0,28.0,30.11,North,0,0.0,3.0,42,0.00,,,0.00,,2013-03-12 07:01:00,
2013-03-12 00:11:00,50.0,28.0,30.11,North,0,0.0,3.0,42,0.00,,,0.00,,2013-03-12 07:11:00,
2013-03-12 00:21:00,49.0,27.0,30.11,North,0,0.0,3.0,42,0.00,,,0.00,,2013-03-12 07:21:00,
2013-03-12 00:31:00,51.0,28.0,30.10,North,0,0.0,2.0,41,0.00,,,0.00,,2013-03-12 07:31:00,
2013-03-12 00:41:00,51.0,28.0,30.10,North,0,0.0,2.0,41,0.00,,,0.00,,2013-03-12 07:41:00,
2013-03-12 00:52:00,50.0,28.0,30.10,North,0,0.0,1.0,42,0.00,,,0.00,,2013-03-12 07:52:00,
2013-03-12 01:01:00,49.0,28.0,30.11,North,0,0.0,1.0,44,0.00,,,0.00,,2013-03-12 08:01:00,
2013-03-12 01:12:00,49.0,28.0,30.11,North,0,0.0,1.0,44,0.00,,,0.00,,2013-03-12 08:12:00,
2013-03-12 01:22:00,50.0,28.0,30.11,North,0,0.0,3.0,42,0.00,,,0.00,,2013-03-12 08:22:00,
2013-03-12 01:32:00,50.0,28.0,30.11,North,0,0.0,3.0,42,0.00,,,0.00,,2013-03-12 08:32:00,
2013-03-12 01:41:00,50.0,28.0,30.11,North,0,0.0,3.0,42,0.00,,,0.00,,2013-03-12 08:41:00,
2013-03-12 01:52:00,50.0,28.0,30.11,North,0,0.0,4.0,42,0.00,,,0.00,,2013-03-12 08:52:00,
2013-03-12 02:02:00,51.0,28.0,30.11,North,0,0.0,5.0,41,0.00,,,0.00,,2013-03-12 09:02:00,
2013-03-12 02:11:00,51.0,28.0,30.11,North,0,0.0,5.0,41,0.00,,,0.00,,2013-03-12 09:11:00,
2013-03-12 02:22:00,50.0,28.0,30.11,North,0,0.0,2.0,42,0.00,,,0.00,,2013-03-12 09:22:00,
2013-03-12 02:32:00,50.0,29.0,30.14,North,0,0.0,2.0,44,0.00,,,0.00,,2013-03-12 09:32:00,
2013-03-12 02:41:00,50.0,29.0,30.14,North,0,0.0,2.0,44,0.00,,,0.00,,2013-03-12 09:41:00,
2013-03-12 02:52:00,49.0,28.0,30.14,North,0,0.0,5.0,44,0.00,,,0.00,,2013-03-12 09:52:00,
2013-03-12 03:01:00,50.0,27.0,30.13,North,0,0.0,4.0,41,0.00,,,0.00,,2013-03-12 10:01:00,
2013-03-12 03:11:00,50.0,27.0,30.13,North,0,0.0,4.0,41,0.00,,,0.00,,2013-03-12 10:11:00,
2013-03-12 03:22:00,49.0,27.0,30.13,North,0,0.0,2.0,43,0.00,,,0.00,,2013-03-12 10:22:00,
2013-03-12 03:32:00,48.0,28.0,30.13,North,0,0.0,2.0,45,0.00,,,0.00,,2013-03-12 10:32:00,
2013-03-12 03:41:00,48.0,28.0,30.13,North,0,0.0,2.0,45,0.00,,,0.00,,2013-03-12 10:41:00,
2013-03-12 03:52:00,49.0,27.0,30.12,SSW,195,1.0,4.0,43,0.00,,,0.00,,2013-03-12 10:52:00,
2013-03-12 04:01:00,49.0,27.0,30.13,North,0,0.0,1.0,43,0.00,,,0.00,,2013-03-12 11:01:00,
2013-03-12 04:11:00,49.0,27.0,30.13,North,0,0.0,1.0,43,0.00,,,0.00,,2013-03-12 11:11:00,
2013-03-12 04:22:00,48.0,29.0,30.13,North,0,0.0,3.0,47,0.00,,,0.00,,2013-03-12 11:22:00,
2013-03-12 04:31:00,46.0,28.0,30.13,North,0,0.0,4.0,49,0.00,,,0.00,,2013-03-12 11:31:00,
2013-03-12 04:42:00,46.0,28.0,30.13,North,0,0.0,4.0,49,0.00,,,0.00,,2013-03-12 11:42:00,
2013-03-12 04:52:00,46.0,28.0,30.14,North,0,0.0,2.0,50,0.00,,,0.00,,2013-03-12 11:52:00,
2013-03-12 05:01:00,47.0,29.0,30.14,North,0,0.0,2.0,49,0.00,,,0.00,,2013-03-12 12:01:00,
2013-03-12 05:11:00,47.0,29.0,30.14,North,0,0.0,2.0,49,0.00,,,0.00,,2013-03-12 12:11:00,
2013-03-12 05:22:00,46.0,29.0,30.15,North,0,0.0,2.0,51,0.00,,,0.00,,2013-03-12 12:22:00,
2013-03-12 05:31:00,46.0,29.0,30.16,North,0,0.0,2.0,51,0.00,,,0.00,,2013-03-12 12:31:00,
2013-03-12 05:41:00,46.0,29.0,30.16,North,0,0.0,2.0,51,0.00,,,0.00,,2013-03-12 12:41:00,
2013-03-12 05:52:00,45.0,28.0,30.16,North,0,0.0,1.0,52,0.00,,,0.00,,2013-03-12 12:52:00,
2013-03-12 06:01:00,44.0,28.0,30.16,North,0,0.0,2.0,54,0.00,,,0.00,,2013-03-12 13:01:00,
2013-03-12 06:11:00,44.0,28.0,30.16,North,0,0.0,2.0,54,0.00,,,0.00,,2013-03-12 13:11:00,
2013-03-12 06:21:00,46.0,29.0,30.17,North,0,0.0,3.0,52,0.00,,,0.00,,2013-03-12 13:21:00,
2013-03-12 06:31:00,45.0,29.0,30.16,North,0,0.0,2.0,54,0.00,,,0.00,,2013-03-12 13:31:00,
2013-03-12 06:42:00,45.0,29.0,30.16,North,0,0.0,2.0,54,0.00,,,0.00,,2013-03-12 13:42:00,
2013-03-12 06:52:00,44.0,28.0,30.17,North,0,0.0,1.0,53,0.00,,,0.00,,2013-03-12 13:52:00,
2013-03-12 07:01:00,45.0,29.0,30.18,North,0,0.0,2.0,54,0.00,,,0.00,,2013-03-12 14:01:00,
2013-03-12 07:11:00,45.0,29.0,30.18,North,0,0.0,2.0,54,0.00,,,0.00,,2013-03-12 14:11:00,
2013-03-12 07:21:00,43.0,29.0,30.19,North,0,0.0,4.0,58,0.00,,,0.00,,2013-03-12 14:21:00,
2013-03-12 07:32:00,43.0,29.0,30.19,North,0,0.0,1.0,58,0.00,,,0.00,,2013-03-12 14:32:00,
2013-03-12 07:42:00,43.0,29.0,30.19,North,0,0.0,1.0,58,0.00,,,0.00,,2013-03-12 14:42:00,
2013-03-12 07:53:00,44.0,29.0,30.19,North,0,0.0,2.0,56,0.00,,,0.00,,2013-03-12 14:53:00,
2013-03-12 08:01:00,45.0,30.0,30.21,North,0,0.0,1.0,55,0.00,,,0.00,,2013-03-12 15:01:00,
2013-03-12 08:11:00,45.0,30.0,30.21,North,0,0.0,1.0,55,0.00,,,0.00,,2013-03-12 15:11:00,
2013-03-12 08:22:00,45.0,30.0,30.21,North,0,0.0,4.0,55,0.00,,,0.00,,2013-03-12 15:22:00,
2013-03-12 08:31:00,45.0,29.0,30.22,North,0,0.0,2.0,54,0.00,,,0.00,,2013-03-12 15:31:00,
2013-03-12 08:41:00,45.0,29.0,30.22,North,0,0.0,2.0,54,0.00,,,0.00,,2013-03-12 15:41:00,
2013-03-12 08:53:00,45.0,31.0,30.22,North,0,0.0,3.0,57,0.00,,,0.00,,2013-03-12 15:53:00,
2013-03-12 09:01:00,46.0,31.0,30.22,North,0,0.0,5.0,56,0.00,,,0.00,,2013-03-12 16:01:00,
2013-03-12 09:11:00,46.0,31.0,30.22,North,0,0.0,5.0,56,0.00,,,0.00,,2013-03-12 16:11:00,
2013-03-12 09:22:00,46.0,30.0,30.21,North,0,0.0,4.0,54,0.00,,,0.00,,2013-03-12 16:22:00,
2013-03-12 09:32:00,47.0,31.0,30.22,North,0,0.0,4.0,54,0.00,,,0.00,,2013-03-12 16:32:00,
2013-03-12 09:42:00,47.0,31.0,30.22,North,0,0.0,4.0,54,0.00,,,0.00,,2013-03-12 16:42:00,
2013-03-12 09:52:00,51.0,30.0,30.22,SSE,155,5.0,7.0,45,0.00,,,0.00,,2013-03-12 16:52:00,
2013-03-12 10:02:00,55.0,32.0,30.23,ESE,118,2.0,6.0,42,0.00,,,0.00,,2013-03-12 17:02:00,
2013-03-12 10:11:00,55.0,32.0,30.23,ESE,118,2.0,6.0,42,0.00,,,0.00,,2013-03-12 17:11:00,
2013-03-12 10:21:00,56.0,29.0,30.22,SE,138,3.0,6.0,36,0.00,,,0.00,,2013-03-12 17:21:00,
2013-03-12 10:32:00,57.0,29.0,30.22,ESE,123,1.0,3.0,34,0.00,,,0.00,,2013-03-12 17:32:00,
2013-03-12 10:42:00,57.0,29.0,30.22,ESE,123,1.0,3.0,34,0.00,,,0.00,,2013-03-12 17:42:00,
2013-03-12 10:53:00,58.0,29.0,30.20,SE,140,3.0,7.0,33,0.00,,,0.00,,2013-03-12 17:53:00,
2013-03-12 11:02:00,60.0,29.0,30.19,NE,55,2.0,5.0,31,0.00,,,0.00,,2013-03-12 18:02:00,
2013-03-12 11:12:00,60.0,28.0,30.18,NE,45,1.0,5.0,30,0.00,,,0.00,,2013-03-12 18:12:00,
2013-03-12 11:22:00,60.0,28.0,30.18,NE,45,1.0,5.0,30,0.00,,,0.00,,2013-03-12 18:22:00,
2013-03-12 11:32:00,61.0,29.0,30.17,NE,45,1.0,4.0,29,0.00,,,0.00,,2013-03-12 18:32:00,
2013-03-12 11:42:00,61.0,29.0,30.17,NE,45,1.0,4.0,29,0.00,,,0.00,,2013-03-12 18:42:00,
2013-03-12 11:53:00,62.0,29.0,30.16,NE,45,1.0,4.0,28,0.00,,,0.00,,2013-03-12 18:53:00,
2013-03-12 12:02:00,63.0,29.0,30.15,NE,40,1.0,6.0,28,0.00,,,0.00,,2013-03-12 19:02:00,
2013-03-12 12:12:00,63.0,29.0,30.15,NE,40,1.0,6.0,28,0.00,,,0.00,,2013-03-12 19:12:00,
2013-03-12 12:22:00,63.0,29.0,30.15,NE,43,1.0,5.0,28,0.00,,,0.00,,2013-03-12 19:22:00,
2013-03-12 12:32:00,64.0,28.0,30.14,North,0,0.0,8.0,26,0.00,,,0.00,,2013-03-12 19:32:00,
2013-03-12 12:43:00,64.0,28.0,30.14,North,0,0.0,8.0,26,0.00,,,0.00,,2013-03-12 19:43:00,
2013-03-12 12:52:00,65.0,28.0,30.13,SSE,154,2.0,6.0,25,0.00,,,0.00,,2013-03-12 19:52:00,
2013-03-12 13:02:00,66.0,28.0,30.12,East,87,3.0,6.0,24,0.00,,,0.00,,2013-03-12 20:02:00,
2013-03-12 13:11:00,66.0,28.0,30.12,East,87,3.0,6.0,24,0.00,,,0.00,,2013-03-12 20:11:00,
2013-03-12 13:22:00,67.0,29.0,30.11,SE,145,2.0,5.0,24,0.00,,,0.00,,2013-03-12 20:22:00,
2013-03-12 13:32:00,68.0,29.0,30.10,SE,141,1.0,6.0,23,0.00,,,0.00,,2013-03-12 20:32:00,
2013-03-12 13:41:00,68.0,29.0,30.10,SE,141,1.0,6.0,23,0.00,,,0.00,,2013-03-12 20:41:00,
2013-03-12 13:53:00,68.0,27.0,30.12,ESE,121,2.0,8.0,21,0.00,,,0.00,,2013-03-12 20:53:00,
2013-03-12 14:02:00,68.0,27.0,30.11,West,270,3.0,9.0,21,0.00,,,0.00,,2013-03-12 21:02:00,
2013-03-12 14:11:00,68.0,27.0,30.11,West,270,3.0,9.0,21,0.00,,,0.00,,2013-03-12 21:11:00,
2013-03-12 14:21:00,67.0,26.0,30.10,WNW,300,4.0,12.0,21,0.00,,,0.00,,2013-03-12 21:21:00,
2013-03-12 14:32:00,68.0,27.0,30.09,NNW,329,5.0,9.0,21,0.00,,,0.00,,2013-03-12 21:32:00,
2013-03-12 14:42:00,68.0,27.0,30.09,NNW,329,5.0,9.0,21,0.00,,,0.00,,2013-03-12 21:42:00,
2013-03-12 14:52:00,69.0,27.0,30.09,WNW,285,3.0,10.0,21,0.00,,,0.00,,2013-03-12 21:52:00,
2013-03-12 15:01:00,69.0,34.0,30.09,WNW,295,4.0,6.0,27,0.00,,,0.00,,2013-03-12 22:01:00,
2013-03-12 15:12:00,69.0,34.0,30.09,WNW,295,4.0,6.0,27,0.00,,,0.00,,2013-03-12 22:12:00,
2013-03-12 15:21:00,69.0,26.0,30.09,NW,326,3.0,7.0,20,0.00,,,0.00,,2013-03-12 22:21:00,
2013-03-12 15:32:00,69.0,26.0,30.08,NNW,343,5.0,8.0,20,0.00,,,0.00,,2013-03-12 22:32:00,
2013-03-12 15:42:00,69.0,26.0,30.08,NNW,343,5.0,8.0,20,0.00,,,0.00,,2013-03-12 22:42:00,
2013-03-12 15:53:00,69.0,26.0,30.08,NNW,346,2.0,7.0,20,0.00,,,0.00,,2013-03-12 22:53:00,
2013-03-12 16:02:00,67.0,25.0,30.08,WSW,248,3.0,6.0,20,0.00,,,0.00,,2013-03-12 23:02:00,
2013-03-12 16:11:00,67.0,25.0,30.08,WSW,248,3.0,6.0,20,0.00,,,0.00,,2013-03-12 23:11:00,
2013-03-12 16:22:00,67.0,27.0,30.07,WNW,290,2.0,6.0,22,0.00,,,0.00,,2013-03-12 23:22:00,
2013-03-12 16:33:00,66.0,27.0,30.08,North,0,0.0,4.0,23,0.00,,,0.00,,2013-03-12 23:33:00,
2013-03-12 16:42:00,66.0,27.0,30.08,North,0,0.0,4.0,23,0.00,,,0.00,,2013-03-12 23:42:00,
2013-03-12 16:52:00,65.0,28.0,30.07,South,180,1.0,5.0,25,0.00,,,0.00,,2013-03-12 23:52:00,
2013-03-12 17:02:00,64.0,28.0,30.07,South,181,1.0,6.0,26,0.00,,,0.00,,2013-03-13 00:02:00,
2013-03-12 17:11:00,64.0,28.0,30.07,South,181,1.0,6.0,26,0.00,,,0.00,,2013-03-13 00:11:00,
2013-03-12 17:22:00,63.0,28.0,30.08,South,186,3.0,6.0,26,0.00,,,0.00,,2013-03-13 00:22:00,
2013-03-12 17:33:00,63.0,-99.9,30.08,South,190,3.0,8.0,-999,0.00,,,0.00,,2013-03-13 00:33:00,
2013-03-12 17:42:00,63.0,-99.9,30.08,South,190,3.0,8.0,-999,0.00,,,0.00,,2013-03-13 00:42:00,
2013-03-12 17:53:00,63.0,28.0,30.08,South,183,1.0,5.0,26,0.00,,,0.00,,2013-03-13 00:53:00,
2013-03-12 18:02:00,63.0,28.0,30.09,SSW,193,2.0,6.0,26,0.00,,,0.00,,2013-03-13 01:02:00,
2013-03-12 18:12:00,63.0,28.0,30.09,SSW,193,2.0,6.0,26,0.00,,,0.00,,2013-03-13 01:12:00,
2013-03-12 18:21:00,63.0,28.0,30.10,South,191,3.0,6.0,26,0.00,,,0.00,,2013-03-13 01:21:00,
2013-03-12 18:31:00,62.0,27.0,30.10,South,188,3.0,7.0,26,0.00,,,0.00,,2013-03-13 01:31:00,
2013-03-12 18:42:00,62.0,27.0,30.10,South,188,3.0,7.0,26,0.00,,,0.00,,2013-03-13 01:42:00,
2013-03-12 18:52:00,62.0,27.0,30.11,North,0,0.0,5.0,26,0.00,,,0.00,,2013-03-13 01:52:00,
2013-03-12 19:01:00,61.0,27.0,30.11,South,187,1.0,6.0,27,0.00,,,0.00,,2013-03-13 02:01:00,
2013-03-12 19:11:00,61.0,27.0,30.11,South,187,1.0,6.0,27,0.00,,,0.00,,2013-03-13 02:11:00,
2013-03-12 19:23:00,61.0,-99.9,30.11,South,188,2.0,7.0,-999,0.00,,,0.00,,2013-03-13 02:23:00,
2013-03-12 19:31:00,61.0,28.0,30.12,North,0,0.0,5.0,28,0.00,,,0.00,,2013-03-13 02:31:00,
2013-03-12 19:42:00,61.0,28.0,30.12,North,0,0.0,5.0,28,0.00,,,0.00,,2013-03-13 02:42:00,
2013-03-12 19:52:00,61.0,28.0,30.12,South,177,1.0,6.0,28,0.00,,,0.00,,2013-03-13 02:52:00,
2013-03-12 20:01:00,61.0,28.0,30.13,North,0,0.0,5.0,28,0.00,,,0.00,,2013-03-13 03:01:00,
2013-03-12 20:11:00,61.0,28.0,30.13,North,0,0.0,5.0,28,0.00,,,0.00,,2013-03-13 03:11:00,
2013-03-12 20:21:00,60.0,27.0,30.14,South,183,1.0,6.0,28,0.00,,,0.00,,2013-03-13 03:21:00,
2013-03-12 20:31:00,60.0,29.0,30.14,South,183,1.0,5.0,31,0.00,,,0.00,,2013-03-13 03:31:00,
2013-03-12 20:41:00,60.0,29.0,30.14,South,183,1.0,5.0,31,0.00,,,0.00,,2013-03-13 03:41:00,
2013-03-12 20:52:00,59.0,28.0,30.15,South,181,1.0,5.0,31,0.00,,,0.00,,2013-03-13 03:52:00,
2013-03-12 21:02:00,58.0,28.0,30.15,North,0,0.0,6.0,32,0.00,,,0.00,,2013-03-13 04:02:00,
2013-03-12 21:12:00,58.0,28.0,30.15,North,0,0.0,6.0,32,0.00,,,0.00,,2013-03-13 04:12:00,
2013-03-12 21:22:00,58.0,29.0,30.16,North,0,0.0,3.0,33,0.00,,,0.00,,2013-03-13 04:22:00,
2013-03-12 21:31:00,58.0,29.0,30.16,North,0,0.0,5.0,33,0.00,,,0.00,,2013-03-13 04:31:00,
2013-03-12 21:42:00,58.0,29.0,30.16,North,0,0.0,5.0,33,0.00,,,0.00,,2013-03-13 04:42:00,
2013-03-12 21:53:00,57.0,29.0,30.17,North,0,0.0,2.0,34,0.00,,,0.00,,2013-03-13 04:53:00,
2013-03-12 22:01:00,57.0,29.0,30.17,South,185,1.0,4.0,34,0.00,,,0.00,,2013-03-13 05:01:00,
2013-03-12 22:11:00,57.0,29.0,30.17,South,185,1.0,4.0,34,0.00,,,0.00,,2013-03-13 05:11:00,
2013-03-12 22:22:00,57.0,29.0,30.18,North,0,0.0,4.0,34,0.00,,,0.00,,2013-03-13 05:22:00,
2013-03-12 22:31:00,57.0,30.0,30.19,South,185,1.0,2.0,36,0.00,,,0.00,,2013-03-13 05:31:00,
2013-03-12 22:42:00,57.0,30.0,30.19,South,185,1.0,2.0,36,0.00,,,0.00,,2013-03-13 05:42:00,
2013-03-12 22:52:00,56.0,29.0,30.20,South,185,1.0,4.0,35,0.00,,,0.00,,2013-03-13 05:52:00,
2013-03-12 23:01:00,56.0,29.0,30.20,North,0,0.0,4.0,35,0.00,,,0.00,,2013-03-13 06:01:00,
2013-03-12 23:11:00,56.0,29.0,30.20,North,0,0.0,4.0,35,0.00,,,0.00,,2013-03-13 06:11:00,
2013-03-12 23:22:00,57.0,29.0,30.20,South,185,2.0,4.0,34,0.00,,,0.00,,2013-03-13 06:22:00,
2013-03-12 23:31:00,57.0,28.0,30.20,North,0,0.0,5.0,33,0.00,,,0.00,,2013-03-13 06:31:00,
2013-03-12 23:41:00,57.0,28.0,30.20,North,0,0.0,5.0,33,0.00,,,0.00,,2013-03-13 06:41:00,
2013-03-12 23:52:00,56.0,29.0,30.21,North,0,0.0,2.0,35,0.00,,,0.00,,2013-03-13 06:52:00,